TimeCDT,TemperatureF,Dew PointF,Humidity,Sea Level PressureIn,VisibilityMPH,Wind Direction,Wind SpeedMPH,Gust SpeedMPH,PrecipitationIn,Events,Conditions,WindDirDegrees,DateUTC
12:53 AM,77.0,75.0,94,29.89,7.0,Calm,Calm,-,N/A,,Clear,0,2013-08-07 05:53:00
1:53 AM,78.1,75.0,90,29.87,8.0,South,4.6,-,N/A,,Clear,170,2013-08-07 06:53:00
2:53 AM,77.0,75.0,94,29.84,7.0,South,3.5,-,N/A,,Clear,170,2013-08-07 07:53:00
3:53 AM,77.0,75.0,94,29.84,7.0,Calm,Calm,-,N/A,,Clear,0,2013-08-07 08:53:00
4:53 AM,75.9,73.9,94,29.84,6.0,Calm,Calm,-,N/A,,Mostly Cloudy,0,2013-08-07 09:53:00
5:53 AM,78.1,75.0,90,29.86,9.0,SSW,4.6,-,N/A,,Clear,210,2013-08-07 10:53:00
6:53 AM,78.1,75.9,93,29.88,9.0,Calm,Calm,-,N/A,,Clear,0,2013-08-07 11:53:00
7:44 AM,78.8,75.2,89,29.93,9.0,North,5.8,-,N/A,,Overcast,10,2013-08-07 12:44:00
7:53 AM,79.0,75.9,90,29.93,10.0,North,6.9,-,N/A,,Mostly Cloudy,360,2013-08-07 12:53:00
8:19 AM,78.8,77.0,94,29.94,10.0,Calm,Calm,-,N/A,,Partly Cloudy,0,2013-08-07 13:19:00
8:53 AM,79.0,75.9,90,29.94,10.0,NNE,5.8,-,N/A,,Partly Cloudy,30,2013-08-07 13:53:00
9:21 AM,78.8,75.2,89,29.97,8.0,NNE,13.8,19.6,0.01,Rain,Light Rain,30,2013-08-07 14:21:00
9:46 AM,75.2,69.8,83,29.98,10.0,NNE,9.2,20.7,0.01,,Overcast,20,2013-08-07 14:46:00
9:53 AM,75.9,70.0,82,29.97,10.0,North,-9999.0,-,0.01,,Overcast,0,2013-08-07 14:53:00
10:53 AM,77.0,70.0,79,29.96,10.0,North,-9999.0,-,N/A,,Clear,0,2013-08-07 15:53:00
11:53 AM,79.0,69.1,72,29.96,10.0,North,-9999.0,-,N/A,,Clear,0,2013-08-07 16:53:00
12:53 PM,80.1,70.0,71,29.94,10.0,East,3.5,-,N/A,,Clear,100,2013-08-07 17:53:00
1:53 PM,82.0,72.0,71,29.90,10.0,SSE,9.2,-,N/A,,Clear,150,2013-08-07 18:53:00
2:53 PM,84.0,73.9,72,29.86,10.0,South,13.8,-,N/A,,Clear,190,2013-08-07 19:53:00
3:53 PM,84.9,73.0,67,29.87,10.0,South,9.2,-,N/A,,Clear,170,2013-08-07 20:53:00
4:53 PM,84.9,72.0,65,29.87,10.0,South,3.5,-,N/A,,Clear,180,2013-08-07 21:53:00
5:53 PM,88.0,73.0,61,29.88,10.0,North,4.6,-,N/A,,Clear,360,2013-08-07 22:53:00
6:53 PM,84.0,73.9,72,29.88,10.0,Calm,Calm,-,N/A,,Overcast,0,2013-08-07 23:53:00
7:53 PM,81.0,75.0,82,29.88,10.0,NE,3.5,-,N/A,,Scattered Clouds,50,2013-08-08 00:53:00
8:53 PM,80.1,75.0,85,29.89,10.0,North,3.5,-,N/A,,Overcast,10,2013-08-08 01:53:00
9:53 PM,78.1,75.0,90,29.91,10.0,Calm,Calm,-,N/A,,Scattered Clouds,0,2013-08-08 02:53:00
10:53 PM,77.0,73.9,90,29.92,10.0,Calm,Calm,-,0.00,,Clear,0,2013-08-08 03:53:00
11:53 PM,75.9,73.9,94,29.91,10.0,Calm,Calm,-,N/A,,Mostly Cloudy,0,2013-08-08 04:53:00